This demonstration page uses our WeatherBlox Daily Observations layout. Learn more.

Left ArrowRight Arrow

Hourly Observations for November 30, 2020

Temp ( °F °C ) Dew Point ( °F °C ) Humidity (%) Winds ( mph kmh ) Pressure ( in mb ) Visibility ( mi km ) Precip ( " mm )
12:54 am 00:54 Clear 23 -5 14 -10 68 68 WNW 7 11 30.45 1031 10 16.0934 0 0
1:54 am 01:54 Clear 23 -5 13 -10.6 65 65 NW 8 13 30.44 1031 10 16.0934 0 0
2:54 am 02:54 Clear 22 -5.6 13 -10.6 68 68 NW 6 9 30.44 1031 10 16.0934 0 0
3:54 am 03:54 Clear 22 -5.6 12 -11.1 66 66 NW 6 9 30.42 1030 10 16.0934 0 0
4:54 am 04:54 Clear 20 -6.7 11 -11.7 68 68 W 3 6 30.42 1030 10 16.0934 0 0
5:54 am 05:54 Clear 19 -7.2 11 -11.7 71 71 W 5 7 30.42 1030 10 16.0934 0 0
6:54 am 06:54 Clear 19 -7.2 11 -11.7 71 71 Calm 30.41 1030 10 16.0934 0 0
7:54 am 07:54 Sunny 18 -7.8 10 -12.2 71 71 W 5 7 30.4 1029 10 16.0934 0 0
8:54 am 08:54 Sunny 21 -6.1 12 -11.1 68 68 W 5 7 30.38 1029 10 16.0934 0 0
9:54 am 09:54 Sunny 28 -2.2 16 -8.9 60 60 WNW 5 7 30.37 1028 10 16.0934 0 0
10:54 am 10:54 Sunny 33 0.6 16 -8.9 49 49 W 5 7 30.36 1028 10 16.0934 0 0
11:54 am 11:54 Sunny 37 2.8 16 -8.9 42 42 W 7 11 30.32 1027 10 16.0934 0 0
12:54 pm 12:54 Sunny 40 4.4 15 -9.4 36 36 WSW 9 15 30.27 1025 10 16.0934 0 0
1:54 pm 13:54 Sunny 43 6.1 13 -10.6 29 29 W 7 11 30.23 1024 10 16.0934 0 0
2:54 pm 14:54 Sunny 45 7.2 11 -11.7 25 25 WSW 8 13 30.18 1022 10 16.0934 0 0
3:54 pm 15:54 Sunny 44 6.7 12 -11.1 27 27 S 6 9 30.16 1022 10 16.0934 0 0
4:54 pm 16:54 Sunny 38 3.3 11 -11.7 33 33 SE 6 9 30.16 1021 10 16.0934 0 0
5:54 pm 17:54 Clear 33 0.6 12 -11.1 42 42 S 7 11 30.16 1021 10 16.0934 0 0
6:54 pm 18:54 Clear 30 -1.1 12 -11.1 47 47 S 7 11 30.16 1021 10 16.0934 0 0
7:54 pm 19:54 Clear 29 -1.7 12 -11.1 49 49 S 6 9 30.15 1021 10 16.0934 0 0
8:54 pm 20:54 Clear 28 -2.2 13 -10.6 53 53 SSE 7 11 30.14 1021 10 16.0934 0 0
9:54 pm 21:54 Clear 26 -3.3 13 -10.6 57 57 SSE 5 7 30.12 1020 10 16.0934 0 0
10:54 pm 22:54 Clear 25 -3.9 13 -10.6 60 60 SSE 8 13 30.11 1020 10 16.0934 0 0
11:54 pm 23:54 Clear 25 -3.9 13 -10.6 60 60 SSE 3 6 30.1 1019 10 16.0934 0 0

Powered by AerisWeather